This is the latest recevied weather packets stored in our database for station/object W1HVD. If no packets are shown the sender has not sent any weather packets the latest 1 day(s).
| Time | Temp. | Humidity | Pressure | Rain* | Wind** | Luminosity | Snow |
|---|---|---|---|---|---|---|---|
| 1778047956 | 14.44° C | 84% | 1011.7 hPa | 0 mm | 3.13 m/s, 155° | 0 W/m² | - |
| 1778047654 | 14.44° C | 84% | 1011.8 hPa | 0 mm | 0.45 m/s, 184° | 0 W/m² | - |
| 1778047351 | 15° C | 83% | 1011.6 hPa | 0 mm | 3.58 m/s, 243° | 0 W/m² | - |
| 1778047048 | 14.44° C | 83% | 1011.9 hPa | 0 mm | 1.79 m/s, 240° | 0 W/m² | - |
| 1778046744 | 14.44° C | 83% | 1011.7 hPa | 0 mm | 1.34 m/s, 231° | 0 W/m² | - |
| 1778046441 | 15° C | 83% | 1012.1 hPa | 0 mm | 0 m/s | 0 W/m² | - |
| 1778046137 | 14.44° C | 84% | 1012.1 hPa | 0 mm | 1.34 m/s, 217° | 0 W/m² | - |
| 1778045834 | 14.44° C | 83% | 1012 hPa | 0 mm | 3.58 m/s, 263° | 0 W/m² | - |
| 1778045533 | 14.44° C | 84% | 1012 hPa | 0 mm | 0.45 m/s, 200° | 0 W/m² | - |
| 1778045231 | 14.44° C | 84% | 1012 hPa | 0 mm | 2.68 m/s, 190° | 0 W/m² | - |
| 1778044929 | 14.44° C | 83% | 1012.2 hPa | 0 mm | 2.68 m/s, 238° | 0 W/m² | - |
| 1778044626 | 14.44° C | 84% | 1012.1 hPa | 0 mm | 2.68 m/s, 206° | 0 W/m² | - |
| 1778044322 | 14.44° C | 83% | 1012.2 hPa | 0 mm | 0.45 m/s, 278° | 0 W/m² | - |
| 1778044021 | 14.44° C | 83% | 1012.3 hPa | 0 mm | 1.79 m/s, 142° | 0 W/m² | - |
| 1778043717 | 14.44° C | 83% | 1012.2 hPa | 0 mm | 1.79 m/s, 211° | 0 W/m² | - |
| 1778043414 | 14.44° C | 82% | 1012.4 hPa | 0 mm | 0.45 m/s, 108° | 0 W/m² | - |
| 1778043111 | 14.44° C | 82% | 1012.4 hPa | 0 mm | 1.34 m/s, 183° | 0 W/m² | - |
| 1778042808 | 14.44° C | 82% | 1012.5 hPa | 0 mm | 1.34 m/s, 208° | 0 W/m² | - |
| 1778042505 | 14.44° C | 82% | 1012.5 hPa | 0 mm | 0.45 m/s, 208° | 0 W/m² | - |
| 1778042202 | 14.44° C | 82% | 1012.4 hPa | 0 mm | 1.34 m/s, 121° | 0 W/m² | - |
| 1778041900 | 14.44° C | 82% | 1012.5 hPa | 0 mm | 2.24 m/s, 185° | 0 W/m² | - |
| 1778041599 | 14.44° C | 82% | 1012.2 hPa | 0 mm | 0.45 m/s, 212° | 0 W/m² | - |
| 1778041297 | 14.44° C | 81% | 1012.4 hPa | 0 mm | 2.68 m/s, 279° | 0 W/m² | - |
| 1778040995 | 14.44° C | 81% | 1012.4 hPa | 0 mm | 2.24 m/s, 46° | 0 W/m² | - |
| 1778040691 | 14.44° C | 81% | 1012.4 hPa | 0 mm | 0.89 m/s, 202° | 0 W/m² | - |
* Rain latest hour (hover to see other rain measurements)
** Current wind speed in m/s (hover to see current wind gust speed)